Location: R�o Perles
(42.1806°N, 1.3266°E)
Time: 15:59:41
(UTC+00:00)

Daily predictions for brighter satellites

Satellite Brightness Start Highest point End
(mag) Time Altitude Azimuth Time Altitude Azimuth Time Altitude Azimuth
NOSS 3-1 (C) 3.3 19:40:59 10° SSW 19:46:22 89° ESE 19:52:36 10° NE
SL-8 R/B 4.5 19:43:22 10° W 19:48:05 56° NNW 19:52:49 10° ENE
NOSS 3-1 (A) 3.3 19:43:24 10° SSW 19:48:37 57° ESE 19:54:37 10° NE
MONITOR-E 4.1 19:48:27 10° S 19:50:59 62° W 19:53:32 10° NNW
STARLINK-1238 3.6 19:47:15 10° SW 19:51:20 63° SE 19:55:27 10° ENE
SL-08 RB Rocket 3.9 19:47:28 10° S 19:52:06 82° WSW 19:56:42 10° NNW
STARLINK-1162 3.7 19:48:24 10° NW 19:52:34 85° SW 19:56:42 10° SE
STARLINK-1201 3.6 19:52:11 10° SW 19:56:18 70° SE 20:00:26 10° ENE
SPOT 3 Rocket 3.6 19:51:49 10° SSE 19:56:55 68° ENE 20:02:03 10° N
BREEZE-M DEB (TANK) 2.2 19:55:02 10° WNW 19:57:34 77° SSW 19:59:57 10° SE
ERBS 3.5 19:55:51 10° S 19:58:22 20° SE 20:00:55 10° ENE
Cosmos 1607 4.4 19:52:09 10° NW 19:58:29 64° WSW 20:04:49 10° SSE
NOSS 2-3 (C) 3.7 19:55:21 10° SSW 19:59:27 55° ESE 20:04:08 10° NE
Cosmos 2278 Rocket 3.0 19:55:56 10° SSE 20:00:44 29° ESE 20:05:32 10° NE
Cosmos 1666 4.1 19:57:12 10° NNW 20:00:50 40° W 20:04:25 10° SSW
STARLINK-1206 3.5 19:57:08 10° SW 20:01:15 77° SE 20:05:24 10° NE
Cosmos 1975 3.8 19:58:18 10° NNE 20:01:57 31° ENE 20:05:32 10° SE
STARLINK-1159 3.7 19:58:22 10° WNW 20:02:30 71° SW 20:06:37 10° SE
Cosmos 1624 Rocket 4.3 19:58:43 10° S 20:03:47 48° ESE 20:08:54 10° NNE
Cosmos 614 Rocket 4.0 19:59:58 10° NNW 20:05:02 68° ENE 20:10:07 10° SSE
Cosmos 2034 Rocket 4.0 19:59:15 10° N 20:05:27 83° E 20:11:36 10° S
Cosmos 1844 Rocket 3.6 20:00:16 10° SW 20:05:49 55° WNW 20:11:23 10° NNE
STARLINK-1205 3.6 20:02:06 10° SW 20:06:14 84° SE 20:10:24 10° NE
Cosmos 1140 Rocket 4.1 20:01:37 10° N 20:06:33 42° ENE 20:11:23 10° SE
STARLINK-1171 3.8 20:03:23 10° WNW 20:07:30 65° SW 20:11:27 11° SE
Okean 1 3.3 20:03:36 10° S 20:07:37 69° E 20:11:39 10° NNE
H-2A R/B 3.6 20:03:49 10° SSW 20:08:20 34° W 20:13:00 10° NNW
Cosmos 44 Rocket 3.8 20:05:26 10° NW 20:10:14 60° WSW 20:15:08 10° SSE
STARLINK-1218 3.6 20:07:03 10° SW 20:11:12 89° NW 20:15:21 10° NE
Meteor 1-19 Rocket 4.4 20:06:16 10° S 20:11:41 54° E 20:17:16 10° NNE
STARLINK-1155 3.9 20:08:21 10° WNW 20:12:27 59° SW 20:16:13 12° SE
Resurs 01 Rocket 1.8 20:09:02 10° SSE 20:13:24 60° ENE 20:17:48 10° N
Meteor 1-4 Rocket 3.1 20:11:34 10° SSE 20:14:43 35° E 20:17:54 10° NNE
STARLINK-1254 3.7 20:12:02 10° SW 20:16:10 83° NW 20:20:20 10° NE
Cosmos 1515 3.9 20:13:02 10° S 20:16:44 49° E 20:20:26 10° NNE
Cosmos 1782 Rocket 3.8 20:12:43 10° N 20:17:08 56° E 20:21:30 10° SSE
STARLINK-1166 4.1 20:13:21 10° WNW 20:17:24 53° SW 20:20:59 13° SSE
Sich 1 Rocket 4.4 20:13:18 10° N 20:17:36 38° ENE 20:21:21 13° SE
Cosmos 1816 Rocket 4.5 20:11:34 10° S 20:17:42 85° E 20:23:51 10° N
Cosmos 1371 Rocket 4.0 20:13:04 10° S 20:18:18 74° ESE 20:23:32 10° NNE
STARLINK-1089 4.5 20:15:40 10° NW 20:19:38 43° NNE 20:23:30 10° E
Abrixas rocket 4.0 20:17:31 10° WNW 20:20:08 28° NNW 20:22:46 10° NE
STARLINK-1231 3.8 20:17:02 10° WSW 20:21:10 76° NW 20:25:19 10° NE
Cosmos 1703 Rocket 3.6 20:17:22 10° S 20:21:42 85° W 20:26:03 10° N
STARLINK-1165 4.2 20:18:21 10° WNW 20:22:21 48° SW 20:25:46 13° SSE
Meteor 1-18 Rocket 4.2 20:18:51 10° S 20:24:24 83° E 20:30:04 10° NNE
ISS -1.3 20:22:05 10° NW 20:24:35 19° NNE 20:27:05 10° ENE
STARLINK-1107 4.4 20:20:38 10° NW 20:24:38 46° NNE 20:28:17 12° ESE
STARLINK-1232 4.0 20:22:01 10° WSW 20:26:09 70° NW 20:30:17 10° NE
STARLINK-1169 4.3 20:23:22 10° WNW 20:27:19 44° SW 20:30:33 14° SSE
STARLINK-1224 4.4 20:25:05 10° SSW 20:28:39 29° SE 20:32:15 10° ENE
Terra 3.9 20:26:34 10° E 20:29:01 14° ENE 20:31:28 10° NNE
STARLINK-1066 4.3 20:25:38 10° NW 20:29:40 49° NNE 20:33:06 14° ESE
STARLINK-1208 4.1 20:27:02 10° WSW 20:31:08 65° NNW 20:35:16 10° NE
Okean 2 Rocket 4.0 20:27:27 10° NNE 20:31:26 31° ENE 20:34:09 17° SE
STARLINK-1178 4.5 20:28:23 10° WNW 20:32:16 40° SW 20:35:20 15° SSE
STARLINK-1225 4.3 20:29:55 10° SSW 20:33:35 31° SE 20:37:17 10° ENE
Spot 2 Rocket 3.9 20:30:33 15° SE 20:34:32 49° ENE 20:39:24 10° N
STARLINK-1081 4.1 20:30:35 10° NW 20:34:39 53° NNE 20:37:52 15° ESE
Cosmos 1908 Rocket 4.5 20:31:27 10° NNW 20:35:45 49° W 20:40:03 10° SSW
STARLINK-1271 4.2 20:32:01 10° WSW 20:36:07 60° NNW 20:40:13 10° NE
Lacrosse 5 3.3 20:31:55 10° NNW 20:36:22 30° NNE 20:40:49 10° E
STARLINK-1230 4.2 20:34:47 10° SSW 20:38:33 34° SE 20:42:19 10° ENE
COSMOS 2406 3.3 20:33:49 10° NNW 20:39:37 72° ENE 20:44:03 17° SSE
STARLINK-1070 4.0 20:35:32 10° NW 20:39:38 57° NNE 20:42:38 17° ESE
MetOp-B 4.2 20:35:46 14° SSE 20:40:22 70° ENE 20:45:42 10° N
CREW DRAGON DEMO-1 DEB 3.3 20:37:28 10° WNW 20:40:30 51° SW 20:42:05 24° SSE
STARLINK-1154 4.4 20:37:03 10° WSW 20:41:07 55° NNW 20:45:12 10° NE
Meteor 2-4 Rocket 3.7 20:36:00 10° S 20:41:17 59° E 20:46:32 10° NNE
Cosmos 1544 3.0 20:37:39 10° N 20:41:17 87° ENE 20:44:03 16° S
Cosmos 371 Rocket 4.0 20:38:42 15° SSE 20:42:10 34° ESE 20:46:32 10° NE
Cosmos 676 Rocket 4.2 20:37:22 10° NNW 20:42:33 58° ENE 20:46:14 19° SE
STARLINK-1087 3.9 20:41:24 10° W 20:42:47 17° SW 20:43:08 16° SSW
STARLINK-1243 4.0 20:39:39 10° SSW 20:43:29 38° SE 20:47:20 10° ENE
Cosmos 1023 Rocket 4.5 20:38:32 10° NNW 20:43:46 90° WSW 20:47:56 16° SSE
SAR-Lupe-2 3.8 20:40:27 10° NNE 20:43:57 48° E 20:46:22 18° S
STARLINK-1069 3.9 20:40:30 10° NW 20:44:37 62° NE 20:47:25 19° ESE
Hubble Space Telescope 2.9 20:43:56 10° SSW 20:45:10 11° S 20:45:26 11° S
Cosmos 1634 Rocket 4.0 20:39:17 10° N 20:45:38 76° E 20:51:10 14° SSE
Iridium 51 4.3 20:42:06 10° S 20:46:14 81° W 20:50:02 10° N
Cosmos 2056 Rocket 3.7 20:41:38 10° SSW 20:46:44 73° WNW 20:51:52 10° NNE
SL-4 R/B 3.3 20:44:31 10° N 20:46:47 18° NE 20:48:05 14° E
STARLINK-1236 3.9 20:44:33 10° SSW 20:48:28 42° SE 20:52:23 10° ENE
STARLINK-1085 3.8 20:45:29 10° NW 20:49:37 67° NE 20:52:13 22° ESE
STARLINK-1086 3.7 20:50:26 10° NW 20:54:35 73° NE 20:56:59 24° ESE
Crew Dragon 2.9 20:55:17 10° N 20:56:19 13° NNE 20:57:23 10° NE
STARLINK-1269 3.7 20:54:21 10° SSW 20:58:21 51° SE 21:02:22 10° ENE
STARLINK-1095 3.6 20:55:26 10° NW 20:59:35 79° NE 21:01:47 27° ESE
IGS 5A 3.4 20:57:51 24° SSE 21:00:14 71° ENE 21:04:23 10° N
H-2A R/B 4.3 21:01:47 10° S 21:01:49 10° S 21:01:49 10° S
STARLINK-1200 3.6 20:59:18 10° SW 21:03:20 56° SE 21:07:24 10° ENE
CARTOSAT-1 4.2 21:01:34 25° ESE 21:03:31 40° ENE 21:07:34 10° N
STARLINK-1077 3.6 21:00:24 10° NW 21:04:34 86° NE 21:06:34 30° SE
Okean 3 3.5 21:02:15 14° S 21:05:57 85° W 21:10:17 10° N
BREEZE M DEB (TANK) 2.9 20:58:26 10° SW 21:06:02 81° SSE 21:08:45 10° ENE
STARLINK-1192 3.5 21:04:14 10° SW 21:08:19 62° SE 21:12:24 10° ENE
STARLINK-1075 3.5 21:05:23 10° NW 21:09:32 87° SW 21:11:20 33° SE
SPOT 5 3.4 21:10:01 26° SE 21:12:37 50° ENE 21:17:43 10° N
Cosmos 2082 Rocket 2.6 21:07:26 10° NNW 21:13:02 52° ENE 21:16:03 26° SE
STARLINK-1244 3.5 21:09:10 10° SW 21:13:16 68° SE 21:17:24 10° ENE
STARLINK-1093 3.5 21:10:22 10° NW 21:14:31 80° SW 21:16:08 36° SE
Cosmos 1461 3.9 21:15:49 28° ESE 21:15:49 28° ESE 21:19:09 10° NE
Cosmos 1833 Rocket 2.6 21:11:44 10° NNW 21:17:23 90° ENE 21:20:27 28° SSE
Cosmos 1452 Rocket 3.4 21:12:48 13° S 21:17:29 75° ESE 21:22:46 10° NNE
STARLINK-1138 3.5 21:14:06 10° SW 21:18:13 74° SE 21:22:22 10° NE
Aureole 1 Rocket 4.4 21:14:30 10° NW 21:18:38 40° WSW 21:22:39 16° SSW
STARLINK-1074 3.6 21:15:20 10° NW 21:19:29 74° SW 21:20:54 39° SE
Landsat 7 4.0 21:18:39 24° S 21:21:27 70° WSW 21:26:13 10° NNW
GENESIS II 4.3 21:17:39 10° NW 21:21:40 69° WSW 21:22:58 39° SSE
Cosmos 1420 Rocket 4.3 21:17:03 10° SSW 21:22:14 69° WNW 21:27:26 10° NNE
Aureole 2 Rocket 4.1 21:24:15 19° ENE 21:24:15 19° ENE 21:25:35 10° NE
STARLINK-1143 3.5 21:19:03 10° SW 21:23:11 81° SE 21:27:21 10° NE
Cosmos 1300 Rocket 3.6 21:19:49 10° N 21:24:17 79° W 21:26:23 31° S
Cosmos 2369 Rocket 4.2 21:26:15 12° E 21:26:15 12° E 21:27:47 10° ENE
Cosmos 304 Rocket 4.2 21:24:48 35° SE 21:26:01 42° ESE 21:30:31 10° NNE
STARLINK-1203 3.5 21:22:39 10° SW 21:26:52 88° SE 21:31:05 10° NE
STARLINK-1241 3.5 21:24:02 10° SW 21:28:11 88° SE 21:32:20 10° NE
Cosmos 1943 Rocket 3.7 21:28:55 18° E 21:28:55 18° E 21:32:26 10° ENE
STARLINK-1088 3.7 21:25:19 10° WNW 21:29:25 61° SW 21:30:28 44° SSE
STARLINK-1239 3.6 21:29:01 10° SW 21:33:09 85° NW 21:37:19 10° NE
Cosmos 1066 Rocket 4.2 21:31:10 33° SSE 21:33:24 56° E 21:38:38 10° NNE
Intercosmos 24 4.1 21:30:02 10° NNW 21:33:36 56° W 21:34:51 35° SSW
STARLINK-1115 3.8 21:30:19 10° WNW 21:34:22 55° SW 21:35:14 45° S
ERBS 3.9 21:31:25 10° WSW 21:34:29 35° NW 21:37:35 10° NNE
Cosmos 332 Rocket 3.7 21:32:39 24° SSW 21:35:39 83° ESE 21:40:36 10° NNE
STARLINK-1240 3.7 21:34:00 10° WSW 21:38:08 78° NW 21:42:18 10° NE
Cosmos 1674 Rocket 3.4 21:36:52 38° S 21:38:31 86° E 21:42:56 10° N
STARLINK-1076 3.9 21:35:19 10° WNW 21:39:20 50° SW 21:40:01 45° S
STARLINK-1082 4.5 21:37:36 10° NW 21:41:35 45° NNE 21:43:15 29° E
Cosmos 972 Rocket 4.5 21:40:09 31° S 21:43:05 63° ESE 21:49:39 10° NNE
STARLINK-1216 3.8 21:38:59 10° WSW 21:43:07 72° NW 21:47:15 10° NE
SPOT 1/Viking Rocket 4.0 21:40:43 26° SSW 21:43:28 54° W 21:48:32 10° NNW
Meteor 1-15 Rocket 4.3 21:37:49 10° N 21:43:47 73° E 21:46:14 37° SSE
NOSS 2-2 (E) 4.3 21:45:11 29° ENE 21:45:11 29° ENE 21:47:33 10° NE
STARLINK-1092 4.0 21:40:18 10° WNW 21:44:16 46° SW 21:44:47 43° SSW
Cosmos 2278 Rocket 3.4 21:39:14 10° SW 21:44:36 42° WNW 21:49:59 10° NNE
Cosmos 1378 Rocket 3.5 21:43:25 46° S 21:44:40 76° E 21:49:04 10° N
STARLINK-1100 4.3 21:42:34 10° NW 21:46:36 48° NNE 21:48:03 33° E
NOSS 8 (E) 4.3 21:47:09 62° WSW 21:47:33 74° NW 21:50:35 10° NNE
STARLINK-1237 3.9 21:43:59 10° WSW 21:48:06 67° NNW 21:52:14 10° NE
STARLINK-1080 4.2 21:45:22 10° WNW 21:49:17 41° SW 21:49:37 40° SSW
Resurs 01 Rocket 4.2 21:48:10 10° WSW 21:50:16 13° W 21:52:22 10° WNW
STARLINK-1083 4.2 21:47:30 10° NW 21:51:34 51° NNE 21:52:48 37° E
Cosmos 1741 Rocket 3.9 21:47:43 10° NNW 21:52:58 88° ENE 21:54:36 45° SSE
STARLINK-1202 4.1 21:49:00 10° WSW 21:53:06 61° NNW 21:57:13 10° NE
STARLINK-1090 4.4 21:50:21 10° WNW 21:54:12 38° SW 21:54:22 37° SW
Cosmos 1437 Rocket 3.3 21:53:11 34° SW 21:54:28 51° WNW 21:58:12 10° N
Okean 2 4.3 21:56:17 34° E 21:56:17 34° E 21:59:48 10° NNE
Abrixas rocket 4.1 21:53:41 10° NW 21:56:11 25° N 21:57:11 20° NE
STARLINK-1125 4.1 21:52:29 10° NW 21:56:35 55° NNE 21:57:36 42° E
Cosmos 1975 Rocket 3.9 21:57:35 35° E 21:57:35 35° E 22:01:35 10° NNE
SeaSat 1 2.6 21:56:19 10° NE 22:01:06 48° ESE 22:01:28 47° SE
STARLINK-1109 3.9 21:57:27 10° NW 22:01:34 60° NNE 22:02:23 49° E
ISS -3.3 21:58:33 10° NW 22:01:47 58° NNE 22:01:47 58° NNE
ERS-1 Rocket 3.6 22:00:14 31° SSW 22:02:14 48° W 22:07:07 10° NNW
STARLINK-1246 4.4 21:59:01 10° WSW 22:03:04 52° NNW 22:07:08 10° NE
Nadezhda 4 Rocket 3.9 22:00:38 31° SSW 22:03:45 83° W 22:09:55 10° N
Cosmos 1850 Rocket 4.1 22:00:25 10° NNW 22:05:45 69° WSW 22:07:19 45° S
Terra 1.9 22:04:56 48° SSW 22:06:10 70° WSW 22:10:56 10° NNW
STARLINK-1091 3.8 22:02:25 10° NW 22:06:32 65° NNE 22:07:09 56° E
NOSS 2-2 (C) 4.1 22:08:29 35° ENE 22:08:29 35° ENE 22:10:57 10° NE
ATLAS 2AS CENTAUR R/B 4.2 22:07:59 23° ESE 22:08:13 23° ESE 22:14:01 10° ENE
Cosmos 1110 Rocket 3.9 22:08:58 45° SSW 22:10:37 86° ESE 22:15:50 10° NNE
STARLINK-1072 3.6 22:07:23 10° NW 22:11:32 71° NE 22:11:56 65° ENE
STARLINK-1096 3.5 22:12:22 10° NW 22:16:32 77° NE 22:16:43 74° ENE
ATLAS 3B CENTAUR R/B 4.4 22:11:37 10° SW 22:15:14 17° SSW 22:15:14 17° SSW
BREEZE-M DEB (TANK) 4.1 22:00:37 10° WSW 22:18:19 73° NNW 22:22:34 10° ENE
Lacrosse 5 1.8 22:14:40 10° NW 22:19:40 64° SW 22:20:15 58° SSW
Cosmos 1766 3.3 22:15:47 10° N 22:19:37 74° NE 22:19:37 74° NE
SL-4 R/B 3.5 22:17:21 10° NW 22:18:54 20° W 22:18:54 20° W
STARLINK-1079 3.5 22:17:21 10° NW 22:21:31 83° NE 22:21:31 83° NE
Okean 1 Rocket 3.5 22:17:31 10° NNW 22:21:53 53° W 22:22:37 47° SW
EXPRESS MD2 4.3 22:20:38 10° WSW 22:24:17 64° NNW 22:31:45 10° ENE
USA 238 DEB 4.5 22:17:50 10° NNW 22:24:48 49° NE 22:28:52 26° ESE
USA 238 4.5 22:17:56 10° NNW 22:24:54 49° NE 22:28:59 25° ESE
STARLINK-1116 3.6 22:22:19 10° NW 22:26:17 81° NW 22:26:17 81° NW
Cosmos 1733 3.5 22:23:11 10° N 22:26:32 61° NNE 22:26:32 61° NNE
Cosmos 1331 Rocket 4.1 22:30:41 41° SW 22:32:22 68° WNW 22:37:33 10° NNE
Cosmos 1455 Rocket 3.3 22:28:27 10° N 22:32:37 54° ENE 22:32:37 54° ENE
Cosmos 1025 Rocket 4.5 22:34:49 26° ENE 22:34:49 26° ENE 22:37:41 10° NNE
STARLINK-1094 3.9 22:32:18 10° NW 22:35:52 62° WNW 22:35:52 62° WNW
Cosmos 1302 Rocket 3.9 22:37:48 66° SSE 22:38:19 72° ESE 22:43:37 10° NNE
STARLINK-1117 4.1 22:37:17 10° WNW 22:40:38 54° W 22:40:38 54° W
Cosmos 1092 Rocket 4.2 22:41:42 39° SSW 22:43:57 65° W 22:50:04 10° N
Cosmos 1758 4.4 22:41:08 10° N 22:44:24 35° ENE 22:44:24 35° ENE
STARLINK-1078 4.3 22:42:17 10° WNW 22:45:26 47° W 22:45:26 47° W
Meteor 1-22 Rocket 4.3 22:40:56 10° NNW 22:46:53 73° W 22:48:05 55° SSW
Meteor 2-13 Rocket 4.3 22:45:42 55° S 22:47:11 86° E 22:53:23 10° N
Aureole 3 Rocket 4.2 22:47:04 10° N 22:52:49 73° E 22:54:53 49° SSE
Cosmos 2082 Rocket 3.7 22:52:20 10° NW 22:56:42 23° W 22:57:54 21° WSW
SL-4 R/B 4.5 22:59:59 16° ENE 22:59:59 16° ENE 23:01:03 10° ENE
Cosmos 1536 Rocket 4.4 22:57:54 39° ENE 22:57:54 39° ENE 23:01:17 10° NNE
ATLAS 5 CENTAUR R/B 4.1 23:00:58 12° NE 23:00:58 12° NE 23:01:11 10° NE
EO 1 Del DPAF 3.9 22:55:39 10° N 22:58:54 50° NW 22:58:54 50° NW
SL-27 R/B 3.8 22:57:02 10° N 22:59:33 39° NNE 22:59:33 39° NNE
ALOS 2 3.2 23:01:01 48° ENE 23:01:01 48° ENE 23:05:06 10° N
Cosmos 1470 3.5 22:57:53 10° N 23:00:55 50° NNE 23:00:55 50° NNE
STARLINK-1112 4.4 22:59:33 10° NW 23:03:35 47° NNE 23:03:46 46° NE
Thor Agena Rocket 4.0 22:58:47 10° N 23:03:59 59° WNW 23:05:15 46° WSW
USA 215 3.3 23:03:20 37° ESE 23:06:10 76° NE 23:12:42 10° NW
Cosmos 1992 Rocket 4.4 23:08:31 49° E 23:08:31 49° E 23:13:13 10° NNE
STARLINK-1128 4.3 23:04:31 10° NW 23:08:33 50° NNE 23:08:33 50° NNE
Cosmos 1544 Rocket 3.7 23:04:28 10° N 23:08:21 70° NNW 23:08:21 70° NNW
Cosmos 2369 Rocket 2.1 23:07:59 67° SSW 23:08:49 89° WNW 23:14:31 10° NNE
Cosmos 1943 Rocket 2.5 23:10:23 45° WSW 23:11:53 61° WNW 23:17:26 10° NNE
STARLINK-1113 4.3 23:09:29 10° NW 23:13:19 53° NNE 23:13:19 53° NNE
SL-8 R/B 4.0 23:09:31 10° WNW 23:14:19 64° NNE 23:15:05 55° ENE
S3M 3.9 23:11:58 10° N 23:18:07 74° E 23:19:11 60° SE
STARLINK-1119 4.2 23:14:27 10° NW 23:18:06 54° N 23:18:06 54° N
Cosmos 1655 Rocket 3.9 23:20:27 64° SSE 23:21:27 81° E 23:27:43 10° N
NOSS 3-2 (C) 4.2 23:15:04 10° NNW 23:22:40 70° NE 23:26:34 35° SE
ATLAS CENTAUR R/B 3.5 23:25:24 19° ENE 23:25:24 19° ENE 23:26:58 10° ENE
STARLINK-1114 4.3 23:19:25 10° NW 23:22:52 54° NNW 23:22:52 54° NNW
Cosmos 1726 3.5 23:23:11 10° N 23:25:42 35° NNE 23:25:42 35° NNE
STARLINK-1130 (DARKSAT) 4.3 23:24:24 10° NW 23:27:41 51° NNW 23:27:41 51° NNW
NOSS 3-4 (A) 3.3 23:29:50 61° SE 23:30:00 61° ESE 23:36:07 10° NE
NOSS 3-4 (C) 3.4 23:29:57 60° SE 23:30:06 61° ESE 23:36:14 10° NE
ATLAS 3B R/B 3.9 23:26:59 10° NNW 23:33:14 37° NE 23:38:47 14° ESE
STARLINK-1084 4.4 23:29:21 10° NW 23:32:26 48° NW 23:32:26 48° NW
Cosmos 1553 Rocket 4.1 23:28:21 10° NNW 23:34:34 62° W 23:35:37 54° SW
CENTAUR R/B 3.3 23:27:20 10° NNW 23:35:28 73° NE 23:39:48 34° SE
SeaSat 1 4.3 23:34:19 10° N 23:38:21 26° NW 23:41:13 15° W
Cosmos 292 Rocket 4.3 23:39:18 51° W 23:39:38 52° WNW 23:44:23 10° N
YAOGAN 11 4.4 23:46:54 61° NE 23:46:54 61° NE 23:50:48 10° N
Cosmos 2263 4.4 23:46:08 53° WSW 23:47:08 62° WNW 23:52:42 10° NNE
Helios 1A 3.4 23:52:18 59° NNW 23:52:18 59° NNW 23:55:45 10° NNW
Cosmos 1656 Rocket 3.6 23:51:32 71° SW 23:52:07 80° WNW 23:57:45 10° NNE
Cosmos 1503 Rocket 3.9 23:48:48 10° NNW 23:54:07 84° WSW 23:54:12 84° SW
Cosmos 1271 Rocket 4.4 23:55:25 27° WNW 23:55:25 27° WNW 23:58:14 10° NNW
